Weather History for Malmstrom AFB, MT

Change the Weather History Date:

Sunday, September 22, 2013

  Actual Average (KGTF) Record (KGTF)
Temperature  
Mean Temperature 62 °F 54 °F  
Max Temperature 70 °F 68 °F 91 °F (1938)
Min Temperature 53 °F 40 °F 24 °F (2000)
Degree Days  
Heating Degree Days 4 12  
Month to date heating degree days 181  
Since 1 July heating degree days 302  
Cooling Degree Days 0 0  
Month to date cooling degree days 20  
Year to date cooling degree days 296  
Growing Degree Days 12 (Base 50)    
Moisture  
Dew Point 38 °F    
Average Humidity 47    
Maximum Humidity 64    
Minimum Humidity 30    
Precipitation  
Precipitation 0.00 in 0.04 in 0.84 in (1910)
Month to date precipitation 1.08  
Year to date precipitation 12.41  
Snow  
Snow 0.00 in 0.10 in 6.00 in (1934)
Month to date snowfall 0.7  
Since 1 July snowfall 1.0  
Since 1 September snowfall 0.7  
Snow Depth -    
Sea Level Pressure  
Sea Level Pressure 29.65 in    
Wind  
Wind Speed 6 mph (SW)    
Max Wind Speed 17 mph    
Max Gust Speed 24 mph    
Visibility 10 miles    
Events      
T = Trace of Precipitation, MM = Missing Value Source: NWS Daily Summary

Daily Weather History Graph

Daily Weather History Graph

Search for Another Location

Airport:

Trip Planner

Search our weather history database for the weather conditions in past years. The results will help you decide how hot, cold, wet, or windy it might be!

Date:

Astronomy

Sep. 22, 2013 Rise Set
Actual Time 7:11 AM MDT 7:21 PM MDT
Civil Twilight 6:41 AM MDT 7:52 PM MDT
Nautical Twilight 6:05 AM MDT 8:28 PM MDT
Astronomical Twilight 5:27 AM MDT 9:05 PM MDT
Moon 8:56 PM MDT (9/22) 10:52 AM MDT (9/22)
Length of Visible Light 13h 11m
Length of Day
12h 09m
Waning Gibbous, 88% of the Moon is Illuminated
Sep 22
Waning Gibbous
Sep 26
Last Quarter
Oct 4
New
Oct 11
First Quarter
Oct 18
Full

Hourly Weather History & Observations

Time (MDT) Temp. Dew Point Humidity Pressure Visibility Wind Dir Wind Speed Gust Speed Precip Events Conditions
12:56 AM 57.0 °F 34.0 °F 42% 29.60 in 10.0 mi ESE 3.5 mph - N/A   Clear
1:56 AM 55.0 °F 34.0 °F 45% 29.61 in 10.0 mi East 4.6 mph - N/A   Clear
2:56 AM 55.0 °F 34.0 °F 45% 29.60 in 10.0 mi South 3.5 mph - N/A   Clear
3:56 AM 55.0 °F 34.0 °F 45% 29.61 in 10.0 mi SSW 4.6 mph - N/A   Clear
4:56 AM 57.9 °F 34.0 °F 41% 29.63 in 10.0 mi WSW 9.2 mph - N/A   Clear
5:56 AM 55.0 °F 36.0 °F 49% 29.64 in 10.0 mi Calm Calm - N/A   Partly Cloudy
6:56 AM 55.0 °F 37.0 °F 51% 29.66 in 10.0 mi SSW 6.9 mph - N/A   Mostly Cloudy
7:56 AM 53.1 °F 39.9 °F 61% 29.66 in 10.0 mi West 3.5 mph - 0.00 in   Scattered Clouds
8:56 AM 55.0 °F 43.0 °F 64% 29.67 in 10.0 mi SW 5.8 mph - N/A   Clear
9:56 AM 60.1 °F 39.0 °F 46% 29.68 in 10.0 mi SSE 3.5 mph - N/A   Clear
10:56 AM 63.0 °F 39.9 °F 43% 29.67 in 10.0 mi Calm Calm - N/A   Clear
11:56 AM 66.9 °F 39.0 °F 36% 29.65 in 10.0 mi WSW 9.2 mph - N/A   Clear
12:56 PM 68.0 °F 39.0 °F 35% 29.63 in 10.0 mi NW 5.8 mph - N/A   Clear
2:56 PM 70.0 °F 37.0 °F 30% 29.62 in 10.0 mi West 12.7 mph - N/A   Scattered Clouds
3:56 PM 66.9 °F 37.0 °F 33% 29.63 in 10.0 mi West 13.8 mph 20.7 mph N/A   Mostly Cloudy
4:56 PM 64.9 °F 36.0 °F 34% 29.63 in 10.0 mi West 16.1 mph 23.0 mph N/A   Mostly Cloudy
6:56 PM 59.0 °F 44.1 °F 58% 29.67 in 10.0 mi SSW 6.9 mph - 0.00 in   Overcast
7:56 PM 57.9 °F 43.0 °F 58% 29.68 in 10.0 mi South 10.4 mph - N/A   Clear
8:56 PM 55.0 °F 43.0 °F 64% 29.70 in 10.0 mi SSW 11.5 mph - N/A   Partly Cloudy
9:56 PM 55.9 °F 41.0 °F 57% 29.71 in 10.0 mi SSW 10.4 mph - N/A   Overcast
10:56 PM 55.9 °F 39.0 °F 53% 29.70 in 10.0 mi SSW 12.7 mph - N/A   Overcast
11:56 PM 57.0 °F 36.0 °F 45% 29.69 in 10.0 mi SW 17.3 mph 24.2 mph N/A   Scattered Clouds